Погода в Кривом Пороге

Россия / Республика Карелия     65°02′23″N   33°40′20″E
темп.,
°C
ветер,
м/с
пор.,
м/с
влажн.,
%
обл.,
%
осадки,
мм/ч
давл.,
гПа
погр.,
м
13 июня, вс
вс1300:00+17ююв3116099 0.0 1004771
03:00+16ююв31070100 0.0 1003560
06:00+17ю4107294 0.1 1002677
09:00+20ю576085 0.3 10011325
12:00+21ю575379 0.3 10011683
15:00+24ю4738100 0.3 10002579
18:00+17сз477571 0.1 1002349
21:00+13сз4894100 5.4 1004531
14 июня, пн
пн1400:00+12зсз3894100 0.4 1005431
03:00+12зюз3693100 0.9 1006265
06:00+12з36835 0.0 1006290
09:00+15зюз4654100 0.0 1008689
12:00+19зюз57325 0.0 10082140
15:00+20з582713 0.0 10082264
18:00+20зюз5734100 0.0 10082040
21:00+16з484974 0.0 1009780
15 июня, вт
вт1500:00+11ю2269100 0.0 100921
03:00+12ююв41267100 0.0 1006338
06:00+15ю61457100 0.0 1003843
09:00+17ю81650100 0.0 10001236
12:00+17ююз9175750 0.1 9991738
15:00+18зюз8134244 0.2 9992167
18:00+16юз7125022 0.0 10002169
21:00+15зюз612525 0.1 10011508
16 июня, ср
ср1600:00+12з410620 0.0 1003382
03:00+8з258319 0.0 1005126
06:00+11зсз35685 0.0 1007554
09:00+14сз354612 0.0 10081430
12:00+14сз464884 0.0 10111221
15:00+16з3541100 0.0 10112234
18:00+15з135698 0.8 10121141
21:00+8с2394100 5.8 1016194
17 июня, чт
чт1700:00+7ю12918 0.6 101852
03:00+6зюз25977 0.6 1019114
06:00+9з36855 0.0 1021223
09:00+14зюз455144 0.0 1021985
12:00+17зюз463278 0.0 10212109
15:00+19зюз57297 0.0 10202343
18:00+17зюз484085 0.0 10201066
21:00+14юз2752100 0.0 1020161